Location: Exeidioux
(45.6312°N, 1.6819°E)
Time: 17:14:50
(UTC+00:00)

Cosmos 2366 rocket - Pass Details

Date: 03 March 2021
Orbit: 955 x 997 km, 82.9° (Epoch: 11 April)

Event Time Altitude Azimuth Distance (km) Brightness Sun altitude
Rises 20:05:15 0° 194° (SSW) 3,679 7.0 -25.4°
Reaches altitude 10° 20:07:46 10° 197° (SSW) 2,740 6.3 -25.8°
Maximum altitude 20:14:02 69° 280° (W) 1,064 4.3 -26.8°
Drops below altitude 10° 20:20:24 10° 4° (N) 2,776 6.5 -27.9°
Sets 20:22:58 0° 7° (N) 3,730 7.2 -28.3°
